Location: ??????
(31.2056°N, 45.3906°E)
Time: 13:58:15
(UTC+00:00)

H-2A R/B - Pass Details

Date: 09 April 2020
Orbit: 734 x 836 km, 98.2° (Epoch: 04 June)

Event Time Altitude Azimuth Distance (km) Brightness Sun altitude
Exits shadow 16:32:35 - 162° (SSE) 2,686 4.5 -15.2°
Reaches altitude 10° 16:33:23 10° 162° (SSE) 2,369 4.2 -15.3°
Maximum altitude 16:38:36 78° 76° (ENE) 806 2.0 -16.4°
Drops below altitude 10° 16:43:43 10° 351° (N) 2,315 4.9 -17.4°
Sets 16:45:59 0° 350° (N) 3,230 5.7 -17.9°
